SCP
0 0 0 0 0 0 0 0 0 0 0 0 0 0 0 0 0 0 0 0 0 0 0 0 0 0 0 0 0 0 0 0 0 0 0 0 0 0
0 0 0 0 0 0 0 0 0 0 0 0 0 0 0 0 0 0 0 0 0 0 0 0 0 0 0 0 0 0 0 0 0 0 0 0 0 0
0 0 0 0 0 0 0 0 0 0 0 0 0 0 0 0 0 0 0 0 0 0 0 0 0 0 0 0 0 0 0 0 0 0 0 0 0 0
0 0 0 0 0 0 0 0 0 0 0 0 0 0 0 0 0 0 0 0 0 0 0 0 0 0 0 0 0 0 0 0 0 0 0 0 0 0
0 0 0 0 0 0 0 0 0 0 0 0 0 0 0 0 0 0 0 0 0 0 0 0 0 0 0 0 0 0 0 0 0 0 0 0 0 0
0 0 0 0 0 0 0 0 0 0 0 0 0 0 0 0 0 0 0 0 0 0 0 0 0 0 0 0 0 0 0 0 0 0 0 0 0 0
0 0 0 0 0 0 0 0 0 0 0 0 0 0 0 0 0 0 0 0 0 0 0 0 0 0 0 0 0 0 0 0 0 0 0 0 0 0
0 0 0 0 0 0 0 0 0 0 0 0 0 0 0 0 0 0 0 0 0 0 0 0 0 0 0 0 0 0 0 0 0 0 0 0 0 0
0 0 0 0 0 0 0 0 0 0 0 0 0 0 0 0 0 0 0 0 0 0 0 0 0 0 0 0 0 0 0 0 0 0 0 0 0 0
0 0 0 0 0 0 0 0 0 0 0 0 0 0 0 0 0 0 0 0 0 0 0 0 0 0 0 0 0 0 0 0 0 0 0 0 0 0
0 0 0 0 0 0 0 0 0 0 0 0 0 0 0 0 0 0 0 0 0 0 0 0 0 0 0 0 0 0 0 0 0 0 0 0 0 0
0 0 0 0 0 0 0 0 0 0 0 0 0 0 0 0 0 0 0 0 0 0 0 0 0 0 0 0 0 0 0 0 0 0 0 0 0 0
0 0 0 0 0 0 0 0 0 0 0 0 0 0 0 0 0 0 0 0 0 0 0 0 0 0 0 0 0 0 0 0 0 0 0 0 0 0
0 0 0 0 0 0 0 0 0 0 0 0 0 0 0 0 0 0 0 0 0 0 0 0 0 0 0 0 0 0 0 0 0 0 0 0 0 0
0 0 0 0 0 0 0 0 0 0 0 0 0 0 0 0 0 0 0 0 0 0 0 0 0 0 0 0 0 0 0 0 0 0 0 0 0 0
0 0 0 0 0 0 0 0 0 0 0 0 0 0 0 0 0 0 0 0 0 0 0 0 0 0 0 0 0 0 0 0 0 0 0 0 0 0
0 0 0 0 0 0 0 0 0 0 0 0 0 0 0 0 0 0 0 0 0 0 0 0 0 0 0 0 0 0 0 0 0 0 0 0 0 0
0 0 0 0 0 0 0 0 0 0 0 0 0 0 0 0 0 0 0 0 0 0 0 0 0 0 0 0 0 0 0 0 0 0 0 0 0 0
0 0 0 0 0 0 0 0 0 0 0 0 0 0 0 0 0 0 0 0 0 0 0 0 0 0 0 0 0 0 0 0 0 0 0 0 0 0
0 0 0 0 0 0 0 0 0 0 0 0 0 0 0 0 0 0 0 0 0 0 0 0 0 0 0 0 0 0 0 0 0 0 0 0 0 0
0 0 0 0 0 0 0 0 0 0 0 0 0 0 0 0 0 0 0 0 0 0 0 0 0 0 0 0 0 0 0 0 0 0 0 0 0 0
0 0 0 0 0 0 0 0 0 0 0 0 0 0 0 0 0 0 0 0 0 0 0 0 0 0 0 0 0 0 0 0 0 0 0 0 0 0
0 0 0 0 0 0 0 0 0 0 0 0 0 0 0 0 0 0 0 0 0 0 0 0 0 0 0 0 0 0 0 0 0 0 0 0 0 0
Wind_Speed
4 3 3 2 2 2 1 2 2 3 3 2 1 1 1 1 3 2 3 6 8 9 8 8 9 10 10 10 10 11 11 11 11 11 12 13 13 14
3 3 3 2 2 2 2 2 2 2 3 2 2 2 2 2 4 2 3 7 8 9 9 9 9 10 10 10 11 11 11 10 11 12 12 13 13 13
3 3 4 3 3 2 2 2 2 2 4 3 2 2 2 2 3 2 3 3 4 8 9 9 9 9 10 10 10 10 10 10 11 12 12 13 13 13
4 4 4 3 3 2 2 3 2 2 2 4 3 2 3 3 2 3 3 3 3 7 8 9 9 10 10 10 10 10 10 11 11 11 12 12 12 12
4 4 4 3 3 2 3 2 2 2 2 3 3 2 2 2 2 3 3 3 4 5 7 8 10 10 10 10 10 10 10 10 11 11 11 12 12 12
3 3 3 3 3 3 2 3 2 2 2 2 3 3 2 2 2 2 3 2 4 4 5 7 8 9 9 10 9 9 9 10 10 11 11 11 11 12
3 3 2 3 3 3 3 2 2 2 2 3 3 3 3 2 2 2 3 3 4 3 3 4 4 3 4 7 8 9 10 10 10 11 11 11 11 11
2 2 2 2 3 4 5 4 3 3 3 3 4 4 4 3 3 3 3 3 4 2 3 4 3 3 3 3 7 9 9 10 10 11 11 11 11 11
2 1 2 2 2 2 3 4 4 6 6 5 5 5 5 4 3 3 4 4 4 3 3 4 3 4 3 4 8 9 9 10 10 10 10 11 11 11
1 1 1 1 2 1 1 2 2 3 4 4 4 4 4 4 4 4 3 4 3 3 2 4 3 4 4 3 8 9 10 10 10 10 10 11 11 11
1 1 2 2 3 3 1 1 2 2 3 4 5 5 6 6 4 2 2 2 4 3 1 2 3 4 4 3 5 7 8 9 10 10 11 11 10 10
1 1 3 3 4 4 2 2 2 3 2 2 3 4 3 4 5 3 2 3 3 3 2 2 2 3 4 3 2 2 4 7 10 10 10 10 10 6
1 1 2 4 4 4 3 2 3 2 1 1 1 2 1 1 2 2 2 2 3 3 2 1 2 3 3 4 3 2 2 3 4 5 7 9 9 7
1 1 1 3 4 4 3 2 3 2 0 1 1 1 1 1 1 2 2 2 2 4 3 2 2 3 3 4 5 3 3 3 3 4 3 6 7 9
1 2 2 3 3 2 2 2 2 0 0 1 1 2 1 1 1 1 2 1 2 2 2 2 2 3 3 4 5 5 4 4 3 3 3 3 3 4
2 2 3 3 2 2 2 1 1 0 0 1 1 1 1 1 1 1 1 2 2 2 2 2 2 3 3 4 4 5 4 3 3 4 4 4 3 3
1 1 1 1 1 1 1 1 1 1 1 1 1 1 1 1 2 2 2 2 2 3 3 3 2 2 3 3 4 4 4 4 4 4 4 4 4 3
2 1 1 1 1 1 1 1 1 1 1 1 1 1 1 2 2 2 1 1 2 2 3 3 3 3 2 2 3 4 3 3 4 4 3 4 5 4
2 1 1 1 1 1 1 1 1 1 1 1 1 1 2 1 2 2 2 2 2 2 3 3 3 2 3 4 3 2 3 4 4 4 3 3 4 4
2 1 1 1 1 1 1 1 1 1 1 1 1 1 1 1 2 2 2 2 2 2 3 2 3 2 2 3 4 4 5 4 3 4 4 3 3 5
2 2 2 2 1 1 1 1 1 1 1 1 1 2 1 1 1 2 2 3 3 2 3 3 3 5 3 2 3 4 4 4 4 4 4 3 3 3
2 2 2 2 2 1 1 1 1 1 2 2 2 1 1 1 2 2 2 2 2 2 3 3 3 3 2 2 3 4 5 5 6 6 5 3 2 2
2 2 2 2 1 1 1 2 2 1 1 2 2 1 2 2 2 1 1 2 2 2 2 2 2 2 2 2 3 3 5 5 4 4 4 5 5 6
Wind_Direction
228 229 232 238 236 246 244 212 209 252 262 246 259 275 278 256 265 259 251 268 275 276 279 283 286 289 291 290 290 293 294 297 300 301 303 303 304 307
230 230 233 237 234 231 231 237 226 230 258 258 263 276 289 293 286 282 267 281 278 276 278 282 286 287 289 290 290 291 293 295 298 299 299 300 301 304
229 228 234 235 242 238 240 240 247 238 259 282 288 298 292 281 290 282 283 278 275 278 279 284 288 289 291 292 292 294 295 296 297 297 297 298 300 301
228 229 234 231 237 235 234 238 240 245 250 274 285 287 282 273 271 278 290 286 280 280 279 285 287 290 291 292 293 295 296 297 298 299 299 300 301 301
231 230 228 221 234 235 235 239 243 253 244 253 271 272 277 276 278 283 283 284 289 290 286 286 288 290 291 292 294 295 297 298 299 298 298 299 300 301
242 235 229 218 225 228 237 237 244 247 246 249 263 268 270 277 271 282 293 290 293 293 291 294 292 289 291 295 296 297 298 298 299 300 299 298 298 299
245 235 233 235 252 252 255 240 234 238 251 252 263 276 273 283 273 277 286 297 290 273 288 290 289 282 288 292 294 297 297 297 300 304 304 301 300 301
244 239 237 238 252 266 273 272 262 245 241 247 257 258 263 268 279 279 286 296 286 279 285 288 277 273 277 274 291 294 293 295 299 301 303 304 304 302
239 238 263 259 271 239 264 280 284 278 264 253 247 252 255 251 257 266 266 273 272 278 288 286 282 279 282 289 292 291 293 298 301 303 305 307 306 303
241 232 234 244 256 250 245 264 273 281 271 259 245 253 256 250 242 250 261 284 290 285 269 276 288 286 292 282 286 287 292 299 304 307 309 311 310 307
261 264 252 242 266 283 267 254 275 285 295 295 293 288 286 284 277 259 253 278 286 282 261 267 288 298 291 279 286 291 298 303 306 309 312 312 313 312
269 272 266 257 269 275 243 232 254 267 286 310 310 310 303 295 290 257 232 255 276 277 256 267 285 308 302 287 278 297 299 301 306 309 311 312 314 311
242 247 258 268 278 285 282 241 255 282 271 279 294 298 300 293 288 277 254 248 260 268 268 280 285 288 279 294 300 295 293 298 306 307 307 310 312 310
242 245 258 275 283 290 288 274 297 318 283 275 282 294 301 305 307 301 289 278 269 269 273 265 266 275 286 291 294 304 306 301 302 302 296 306 310 311
280 295 303 305 312 313 309 316 325 341 236 264 283 295 299 293 312 329 328 320 317 306 298 278 269 277 275 277 288 298 305 304 297 298 300 298 295 301
336 338 331 328 326 331 337 340 348 272 283 264 288 302 316 324 328 323 314 321 328 320 313 297 285 279 279 280 280 289 296 296 306 305 302 299 293 285
324 347 342 331 354 12 13 5 6 351 331 294 301 317 321 323 319 319 313 322 314 314 324 326 318 300 278 275 281 287 296 297 297 303 307 307 302 292
347 23 358 350 352 346 344 346 355 351 329 317 312 306 313 320 322 327 325 325 316 315 318 320 325 324 315 299 266 280 293 300 306 305 301 303 309 313
8 20 357 345 338 335 338 346 343 342 336 322 312 310 317 322 327 326 322 324 321 319 321 321 321 320 320 320 318 312 306 305 306 308 307 299 299 306
14 352 335 329 329 331 334 337 333 336 334 325 325 319 316 321 323 319 315 318 318 321 322 324 321 314 300 298 301 307 307 297 301 306 310 310 300 301
358 354 343 336 336 329 328 325 323 326 325 325 332 334 324 317 316 313 311 316 321 318 316 313 305 313 303 303 307 312 316 313 306 297 303 314 318 328
342 335 333 333 331 330 331 332 333 336 335 331 332 332 327 315 309 311 313 313 314 314 315 316 324 330 333 324 319 320 325 329 329 324 313 291 282 302
324 322 321 326 331 333 336 337 333 330 329 327 329 331 332 327 320 315 314 314 315 317 323 331 338 342 333 320 321 325 326 328 332 340 336 327 307 291